QPF
0.00 0.00 0.00 0.00 0.00 0.00 0.00 0.00 0.00 0.00 0.00 0.00 0.01 0.11 0.23 0.01 0.00 0.00 0.00 0.00 0.01 0.00 0.00 0.00 0.00 0.00 0.00 0.00 0.00 0.00 0.00 0.00 0.00 0.00 0.00 0.00 0.00 0.00 0.01 0.03 0.03 0.04 0.05 0.00
0.00 0.00 0.00 0.00 0.00 0.00 0.00 0.00 0.00 0.01 0.01 0.00 0.03 0.04 0.15 0.01 0.00 0.00 0.00 0.00 0.01 0.01 0.01 0.00 0.00 0.00 0.00 0.00 0.00 0.00 0.00 0.00 0.00 0.00 0.00 0.00 0.00 0.01 0.01 0.06 0.03 0.01 0.01 0.00
0.00 0.00 0.00 0.00 0.00 0.00 0.00 0.00 0.00 0.00 0.02 0.00 0.00 0.01 0.02 0.00 0.00 0.00 0.00 0.01 0.03 0.00 0.02 0.00 0.00 0.00 0.01 0.01 0.00 0.00 0.00 0.00 0.00 0.00 0.00 0.01 0.04 0.07 0.15 0.16 0.03 0.00 0.00 0.00
0.00 0.00 0.00 0.00 0.00 0.00 0.00 0.00 0.00 0.00 0.00 0.00 0.00 0.00 0.00 0.00 0.01 0.02 0.01 0.00 0.00 0.00 0.01 0.00 0.00 0.00 0.01 0.01 0.00 0.00 0.00 0.00 0.00 0.00 0.00 0.00 0.01 0.02 0.01 0.00 0.01 0.01 0.00 0.00
0.00 0.00 0.00 0.00 0.00 0.00 0.00 0.00 0.00 0.00 0.00 0.00 0.00 0.00 0.00 0.09 0.12 0.06 0.02 0.01 0.03 0.00 0.00 0.00 0.00 0.00 0.00 0.00 0.00 0.00 0.00 0.00 0.00 0.00 0.02 0.01 0.00 0.16 0.10 0.03 0.14 0.07 0.02 0.00
0.00 0.00 0.00 0.00 0.00 0.00 0.00 0.00 0.00 0.00 0.00 0.00 0.00 0.00 0.00 0.23 0.31 0.17 0.00 0.01 0.13 0.04 0.02 0.00 0.00 0.00 0.00 0.00 0.00 0.00 0.00 0.00 0.00 0.00 0.01 0.01 0.03 0.19 0.23 0.09 0.07 0.04 0.01 0.00
0.00 0.00 0.00 0.00 0.00 0.00 0.00 0.00 0.00 0.00 0.00 0.00 0.00 0.00 0.00 0.06 0.44 0.36 0.02 0.00 0.03 0.02 0.06 0.02 0.00 0.01 0.00 0.00 0.00 0.00 0.00 0.00 0.00 0.00 0.00 0.00 0.02 0.06 0.19 0.25 0.02 0.01 0.02 0.00
0.00 0.00 0.00 0.00 0.00 0.00 0.00 0.00 0.00 0.00 0.00 0.00 0.00 0.00 0.00 0.00 0.02 0.06 0.00 0.00 0.00 0.01 0.02 0.12 0.00 0.02 0.00 0.00 0.00 0.00 0.00 0.00 0.00 0.00 0.01 0.02 0.02 0.02 0.02 0.12 0.01 0.03 0.07 0.03
0.00 0.00 0.00 0.00 0.00 0.00 0.00 0.00 0.00 0.00 0.00 0.00 0.00 0.00 0.00 0.00 0.00 0.00 0.00 0.00 0.01 0.12 0.12 0.09 0.02 0.01 0.05 0.00 0.00 0.00 0.00 0.00 0.00 0.00 0.00 0.00 0.00 0.00 0.01 0.01 0.00 0.00 0.03 0.09
0.00 0.00 0.00 0.00 0.00 0.00 0.00 0.00 0.00 0.00 0.00 0.00 0.00 0.00 0.00 0.00 0.00 0.00 0.00 0.00 0.00 0.04 0.42 0.56 0.21 0.08 0.05 0.01 0.00 0.00 0.00 0.00 0.00 0.00 0.00 0.00 0.00 0.01 0.00 0.01 0.00 0.00 0.02 0.14
0.00 0.00 0.00 0.00 0.00 0.00 0.00 0.00 0.00 0.00 0.00 0.00 0.00 0.01 0.00 0.00 0.00 0.00 0.00 0.00 0.00 0.02 0.26 0.74 0.80 0.26 0.17 0.08 0.09 0.08 0.02 0.00 0.00 0.00 0.00 0.00 0.00 0.00 0.00 0.00 0.00 0.00 0.00 0.04
0.00 0.00 0.00 0.00 0.00 0.00 0.00 0.00 0.00 0.00 0.00 0.00 0.00 0.03 0.00 0.00 0.00 0.00 0.00 0.00 0.00 0.01 0.09 0.21 0.47 0.46 0.43 0.23 0.13 0.16 0.12 0.04 0.01 0.00 0.01 0.00 0.00 0.00 0.00 0.00 0.00 0.00 0.00 0.00
0.00 0.00 0.00 0.00 0.00 0.00 0.00 0.00 0.00 0.00 0.00 0.00 0.00 0.00 0.00 0.00 0.00 0.00 0.00 0.00 0.00 0.00 0.01 0.10 0.19 0.31 0.24 0.49 0.38 0.37 0.53 0.35 0.10 0.02 0.00 0.00 0.00 0.00 0.00 0.01 0.00 0.00 0.00 0.00
0.00 0.00 0.00 0.00 0.00 0.00 0.00 0.00 0.00 0.00 0.00 0.00 0.00 0.00 0.00 0.00 0.00 0.00 0.00 0.00 0.00 0.00 0.01 0.05 0.07 0.10 0.08 0.13 0.25 0.32 0.42 0.51 0.38 0.12 0.15 0.07 0.01 0.00 0.00 0.01 0.02 0.02 0.01 0.00
0.00 0.00 0.00 0.00 0.00 0.00 0.00 0.00 0.00 0.00 0.00 0.00 0.00 0.00 0.00 0.00 0.00 0.00 0.00 0.00 0.00 0.00 0.00 0.00 0.03 0.03 0.02 0.01 0.08 0.23 0.24 0.20 0.28 0.16 0.32 0.51 0.57 0.11 0.01 0.02 0.05 0.05 0.03 0.00
0.00 0.00 0.00 0.00 0.00 0.00 0.00 0.00 0.00 0.00 0.00 0.00 0.00 0.00 0.00 0.00 0.00 0.00 0.00 0.00 0.00 0.00 0.00 0.00 0.00 0.00 0.01 0.01 0.03 0.08 0.27 0.26 0.22 0.20 0.23 0.24 0.56 0.28 0.10 0.05 0.03 0.04 0.02 0.02
0.00 0.00 0.00 0.00 0.00 0.00 0.00 0.00 0.00 0.00 0.00 0.00 0.01 0.01 0.00 0.00 0.00 0.00 0.00 0.00 0.00 0.00 0.00 0.00 0.00 0.00 0.00 0.00 0.00 0.01 0.08 0.13 0.18 0.12 0.11 0.11 0.19 0.17 0.12 0.06 0.04 0.04 0.04 0.03
0.00 0.00 0.00 0.00 0.00 0.00 0.00 0.00 0.00 0.00 0.00 0.00 0.00 0.00 0.00 0.00 0.00 0.00 0.00 0.00 0.00 0.00 0.00 0.00 0.00 0.00 0.00 0.00 0.00 0.00 0.00 0.00 0.01 0.02 0.01 0.02 0.02 0.04 0.11 0.07 0.05 0.07 0.06 0.05
0.00 0.00 0.00 0.00 0.00 0.00 0.00 0.00 0.00 0.00 0.00 0.00 0.00 0.00 0.00 0.00 0.00 0.00 0.00 0.00 0.00 0.00 0.00 0.00 0.00 0.00 0.00 0.00 0.00 0.00 0.00 0.00 0.00 0.00 0.00 0.00 0.00 0.00 0.05 0.09 0.08 0.09 0.08 0.06
0.00 0.00 0.00 0.00 0.00 0.00 0.00 0.00 0.00 0.00 0.00 0.00 0.00 0.00 0.00 0.00 0.00 0.00 0.00 0.00 0.00 0.00 0.00 0.00 0.00 0.00 0.00 0.00 0.00 0.00 0.00 0.00 0.00 0.00 0.00 0.00 0.00 0.00 0.01 0.05 0.04 0.02 0.03 0.05
0.00 0.00 0.00 0.00 0.00 0.00 0.00 0.00 0.00 0.00 0.00 0.00 0.00 0.00 0.00 0.00 0.00 0.00 0.00 0.00 0.00 0.00 0.00 0.00 0.00 0.00 0.00 0.00 0.00 0.00 0.00 0.00 0.00 0.00 0.00 0.00 0.00 0.00 0.00 0.01 0.02 0.06 0.04 0.04
0.00 0.00 0.00 0.00 0.01 0.01 0.00 0.00 0.00 0.00 0.00 0.00 0.00 0.00 0.00 0.00 0.00 0.00 0.00 0.00 0.00 0.00 0.00 0.00 0.00 0.00 0.00 0.00 0.00 0.00 0.00 0.00 0.00 0.00 0.00 0.00 0.00 0.00 0.00 0.00 0.00 0.00 0.00 0.00
0.00 0.00 0.01 0.00 0.03 0.01 0.00 0.00 0.00 0.00 0.00 0.00 0.00 0.00 0.00 0.00 0.00 0.00 0.00 0.00 0.00 0.00 0.00 0.00 0.00 0.00 0.00 0.00 0.00 0.00 0.00 0.00 0.00 0.00 0.00 0.00 0.00 0.00 0.00 0.00 0.00 0.00 0.00 0.00
0.00 0.00 0.00 0.00 0.00 0.00 0.00 0.00 0.00 0.00 0.00 0.00 0.00 0.00 0.00 0.00 0.00 0.00 0.00 0.00 0.00 0.00 0.00 0.00 0.00 0.00 0.00 0.00 0.00 0.00 0.00 0.00 0.00 0.00 0.00 0.00 0.00 0.00 0.00 0.00 0.00 0.00 0.00 0.00
0.00 0.00 0.00 0.00 0.00 0.00 0.00 0.00 0.00 0.00 0.00 0.00 0.00 0.00 0.00 0.00 0.00 0.00 0.00 0.00 0.00 0.00 0.00 0.00 0.00 0.00 0.00 0.00 0.00 0.00 0.00 0.00 0.00 0.00 0.00 0.00 0.00 0.00 0.00 0.00 0.00 0.00 0.00 0.00
0.00 0.00 0.01 0.00 0.00 0.00 0.00 0.00 0.00 0.00 0.00 0.00 0.00 0.00 0.00 0.00 0.00 0.00 0.00 0.00 0.00 0.00 0.00 0.00 0.00 0.00 0.00 0.00 0.00 0.00 0.00 0.00 0.00 0.00 0.00 0.00 0.00 0.00 0.00 0.00 0.00 0.00 0.00 0.00
MSLP
1004.66 1004.32 1003.02 1002.35 1001.75 1000.86 1000.06 999.84 999.74 1000.77 1001.32 1001.47 1003.79 1006.29 1006.60 1007.09 1007.78 1008.44 1008.95 1009.71 1009.80 1010.25 1011.02 1011.47 1012.17 1012.58 1013.46 1014.40 1015.47 1016.03 1016.30 1016.98 1017.58 1017.92 1017.93 1018.26 1018.58 1018.97 1018.97 1018.91 1019.11 1019.45 1019.60 1019.32
1003.70 1003.03 1002.11 1001.83 1001.24 1000.75 999.96 999.26 999.27 1002.04 1001.48 1002.28 1004.49 1006.26 1007.23 1007.14 1007.59 1008.61 1008.78 1009.92 1010.17 1010.41 1010.99 1011.64 1012.00 1012.64 1013.49 1014.26 1015.20 1016.07 1016.53 1017.16 1017.50 1017.77 1017.70 1017.97 1018.26 1018.91 1019.10 1019.14 1018.96 1019.07 1019.28 1019.27
1002.31 1001.72 1001.75 1000.99 1000.61 1000.21 999.68 999.01 998.82 1000.72 1003.09 1002.92 1002.96 1004.98 1006.52 1006.53 1006.99 1007.78 1008.79 1009.75 1010.39 1010.32 1010.90 1011.46 1011.90 1012.66 1013.51 1014.37 1014.97 1015.75 1016.43 1017.02 1017.40 1017.38 1017.47 1018.00 1018.82 1019.27 1019.32 1019.58 1019.22 1018.73 1019.08 1019.14
1002.11 1001.04 1000.82 1000.66 1000.20 999.88 999.25 998.92 998.55 1000.46 1001.24 1001.03 1001.18 1002.46 1003.93 1005.23 1006.57 1007.68 1008.64 1009.14 1009.72 1009.96 1010.45 1011.11 1011.68 1012.49 1013.27 1014.29 1014.76 1015.50 1016.26 1016.89 1017.24 1017.42 1017.39 1017.64 1018.58 1019.35 1019.11 1018.91 1018.77 1018.74 1018.78 1019.00
1001.27 1000.91 1000.43 1000.30 999.95 999.80 999.27 998.85 998.83 999.72 1000.01 1000.02 1000.35 1001.52 1003.59 1004.51 1006.53 1007.21 1008.44 1008.60 1009.23 1009.72 1010.11 1010.42 1010.57 1011.61 1012.84 1013.47 1014.16 1015.08 1015.93 1016.62 1016.94 1017.23 1017.44 1017.67 1018.70 1018.76 1019.31 1019.35 1019.26 1019.17 1018.83 1018.84
1000.92 1000.82 1000.49 1000.29 1000.07 999.93 999.64 999.23 999.15 999.52 999.93 999.58 999.83 1000.97 1003.43 1005.70 1007.40 1008.60 1008.34 1009.28 1009.30 1009.02 1009.68 1010.40 1010.84 1011.49 1012.29 1013.25 1013.72 1014.71 1015.67 1016.23 1016.59 1017.02 1017.34 1017.69 1018.54 1019.68 1020.13 1020.21 1019.52 1019.46 1019.10 1018.96
1001.24 1000.29 1000.47 1000.50 1000.33 1000.34 999.99 999.53 999.34 999.83 999.63 999.25 999.85 1000.82 1002.64 1006.12 1007.57 1009.32 1007.72 1008.42 1009.39 1009.51 1009.50 1010.15 1010.89 1011.56 1012.22 1012.79 1013.38 1014.34 1015.32 1015.90 1016.27 1016.68 1016.97 1017.25 1017.96 1019.06 1019.77 1019.99 1019.70 1019.27 1019.16 1019.05
1000.83 1000.68 1000.30 1000.49 1000.40 1000.03 999.92 999.57 998.98 999.34 999.45 999.63 1000.02 1000.48 1003.16 1004.68 1006.40 1007.54 1007.04 1008.03 1008.79 1008.97 1010.27 1010.53 1010.65 1011.48 1012.29 1012.89 1013.21 1013.81 1014.73 1015.50 1015.85 1016.14 1016.43 1016.82 1017.20 1018.23 1018.66 1019.01 1019.14 1019.20 1019.01 1019.31
1001.63 1000.23 1000.05 1000.09 1000.18 999.91 999.70 999.63 999.36 998.87 998.91 999.25 999.83 1002.47 1003.77 1005.22 1006.64 1007.39 1008.43 1009.31 1011.24 1011.39 1012.73 1012.72 1011.06 1011.70 1012.64 1012.51 1013.17 1013.49 1014.17 1014.81 1015.32 1015.61 1015.95 1016.32 1016.62 1017.11 1017.58 1018.08 1018.49 1018.94 1018.95 1019.13
1002.53 1001.58 1000.05 999.96 1000.20 999.93 1000.19 1000.28 999.92 999.27 999.52 999.67 1000.66 1002.09 1003.56 1005.63 1007.67 1008.73 1009.79 1011.23 1012.38 1013.41 1013.63 1013.66 1013.20 1013.11 1012.76 1012.77 1013.12 1013.23 1013.91 1014.21 1014.70 1015.10 1015.43 1015.77 1016.08 1016.39 1016.78 1017.25 1017.40 1017.72 1018.61 1018.95
1003.62 1002.19 1001.55 1000.95 1000.75 1000.35 1000.67 1001.29 1000.36 999.96 999.93 999.98 1001.94 1004.82 1004.61 1006.77 1008.61 1010.45 1011.59 1013.11 1014.45 1015.21 1015.76 1014.18 1014.90 1015.34 1015.52 1014.05 1013.89 1015.00 1013.63 1014.02 1014.33 1014.72 1014.98 1015.21 1015.58 1015.89 1016.24 1016.57 1016.72 1017.25 1017.69 1017.71
1004.51 1003.40 1003.05 1001.62 1001.49 1001.43 1000.74 1000.82 1000.79 1000.34 1000.25 1000.31 1003.14 1007.21 1008.15 1009.12 1010.69 1012.35 1013.58 1014.78 1015.66 1016.34 1016.69 1016.64 1016.38 1017.08 1016.91 1015.82 1016.56 1016.63 1016.15 1015.60 1013.94 1014.25 1014.76 1015.03 1015.21 1015.54 1016.03 1016.47 1016.71 1016.97 1017.41 1017.54
1006.10 1004.59 1003.34 1002.52 1002.35 1002.18 1001.74 1001.61 1001.07 1000.58 1000.40 1000.50 1003.43 1006.76 1009.09 1010.65 1011.86 1013.78 1014.56 1015.81 1016.04 1016.98 1017.65 1017.99 1018.16 1017.96 1016.82 1017.08 1017.70 1017.10 1017.01 1016.41 1016.88 1015.30 1013.99 1014.55 1014.89 1015.06 1015.38 1015.97 1016.46 1016.80 1017.22 1017.26
1007.37 1005.83 1005.11 1005.59 1004.54 1003.12 1002.57 1002.10 1001.45 1001.46 1001.49 1002.06 1003.42 1006.96 1009.77 1011.29 1012.73 1014.45 1015.20 1016.19 1016.45 1016.78 1017.96 1018.62 1018.69 1018.78 1018.44 1018.61 1018.90 1017.97 1017.89 1016.11 1017.30 1016.28 1015.61 1014.83 1013.89 1014.27 1014.42 1015.32 1016.04 1016.55 1016.85 1017.20
1007.08 1006.32 1006.11 1006.09 1005.56 1004.29 1002.32 1002.51 1002.24 1002.41 1002.76 1003.63 1005.88 1007.50 1009.75 1011.76 1013.14 1014.34 1015.26 1015.82 1016.25 1016.54 1017.44 1017.93 1018.45 1018.64 1018.55 1018.56 1019.24 1019.49 1019.16 1018.27 1018.08 1017.92 1017.00 1015.18 1016.62 1014.67 1015.41 1014.66 1015.84 1016.29 1016.64 1016.73
1007.26 1007.02 1007.28 1006.86 1006.00 1005.66 1004.25 1003.05 1003.23 1003.58 1003.91 1004.67 1006.18 1007.79 1009.51 1011.76 1013.28 1014.12 1014.92 1015.43 1015.80 1015.98 1016.84 1017.55 1017.88 1018.11 1018.26 1018.44 1018.79 1018.88 1018.80 1019.08 1019.10 1018.80 1018.33 1017.09 1018.69 1016.64 1015.90 1015.09 1015.73 1015.98 1016.28 1016.47
1007.98 1008.09 1008.39 1007.66 1007.22 1006.85 1006.32 1005.43 1005.15 1005.35 1005.41 1006.68 1008.08 1009.42 1010.43 1011.54 1012.35 1013.41 1014.44 1015.27 1015.62 1015.82 1016.32 1016.88 1017.49 1017.77 1017.85 1017.93 1018.20 1018.33 1018.45 1018.49 1018.39 1018.91 1019.61 1018.89 1017.60 1016.73 1016.79 1016.73 1015.99 1015.71 1016.09 1015.99
1008.69 1009.00 1009.13 1008.68 1008.39 1008.01 1007.09 1006.58 1006.73 1006.87 1006.82 1007.43 1008.20 1010.03 1010.89 1011.88 1013.12 1013.79 1014.73 1015.62 1016.08 1016.18 1016.52 1016.81 1017.16 1017.72 1017.86 1018.03 1018.18 1018.16 1018.00 1018.16 1018.44 1018.46 1019.37 1019.55 1018.93 1018.86 1018.22 1017.43 1017.16 1016.83 1016.14 1015.84
1009.34 1009.56 1009.47 1009.08 1009.97 1009.33 1008.47 1008.38 1008.11 1007.97 1008.30 1009.02 1009.64 1010.66 1011.62 1012.83 1013.80 1014.98 1015.73 1016.10 1016.59 1016.90 1017.13 1017.42 1017.64 1017.83 1018.04 1018.26 1018.43 1018.58 1018.49 1018.47 1018.49 1018.74 1018.91 1018.64 1019.02 1019.34 1018.88 1018.28 1017.85 1017.44 1016.81 1016.21
1009.90 1010.33 1010.38 1009.70 1009.43 1009.39 1009.10 1009.63 1009.21 1008.89 1009.22 1010.46 1011.06 1011.84 1012.66 1013.34 1013.92 1014.91 1016.11 1016.47 1017.04 1017.61 1018.04 1018.35 1018.35 1018.28 1018.40 1018.85 1018.85 1018.93 1018.82 1018.86 1018.90 1019.20 1018.99 1018.85 1018.87 1018.80 1018.57 1018.18 1017.70 1017.51 1017.02 1016.53
1010.91 1010.91 1010.90 1010.57 1010.09 1010.28 1011.11 1010.84 1010.43 1010.40 1010.73 1011.07 1011.68 1012.50 1013.23 1013.94 1015.10 1015.89 1016.68 1017.37 1017.81 1018.30 1018.77 1019.09 1019.18 1019.34 1019.67 1019.75 1019.69 1019.54 1019.43 1019.28 1019.36 1019.32 1019.22 1018.97 1018.92 1018.75 1018.18 1017.82 1017.84 1017.44 1017.09 1016.66
1011.38 1011.38 1011.35 1011.25 1011.01 1010.91 1011.18 1011.46 1011.53 1012.13 1012.17 1012.66 1013.10 1014.00 1014.64 1015.54 1016.18 1016.75 1017.34 1017.93 1018.40 1018.79 1019.22 1019.49 1019.70 1020.11 1020.35 1020.55 1020.53 1020.39 1020.20 1020.09 1019.99 1019.80 1019.53 1019.34 1019.15 1018.83 1018.34 1018.09 1017.73 1017.51 1016.98 1016.40
1012.65 1012.18 1012.49 1012.17 1012.35 1012.65 1012.74 1012.39 1012.72 1012.80 1013.31 1013.88 1014.29 1014.99 1015.50 1016.13 1016.64 1017.29 1017.82 1018.38 1018.86 1019.27 1019.67 1019.90 1020.23 1020.42 1020.69 1020.90 1021.08 1021.09 1021.13 1021.05 1020.80 1020.53 1020.20 1019.77 1019.40 1019.02 1018.57 1018.09 1017.58 1017.10 1016.72 1016.08
1012.32 1012.76 1013.00 1012.93 1012.77 1012.73 1013.07 1013.33 1013.43 1013.61 1013.88 1014.50 1014.78 1015.50 1015.96 1016.26 1016.95 1017.57 1018.16 1018.75 1019.14 1019.67 1020.05 1020.53 1020.94 1021.02 1021.07 1021.16 1021.17 1021.34 1021.27 1021.16 1021.03 1020.77 1020.42 1019.97 1019.51 1019.00 1018.50 1017.90 1017.29 1016.71 1016.17 1015.83
1012.59 1012.58 1012.92 1013.09 1013.19 1013.16 1013.16 1013.31 1013.90 1014.37 1014.60 1015.02 1015.32 1015.73 1016.17 1016.63 1017.23 1017.77 1018.45 1019.01 1019.55 1020.05 1020.47 1021.10 1021.40 1021.43 1021.53 1021.49 1021.61 1021.58 1021.46 1021.41 1021.22 1020.93 1020.53 1020.03 1019.35 1018.78 1018.17 1017.52 1016.88 1016.30 1015.72 1015.33
1012.46 1012.85 1013.00 1013.17 1013.00 1012.91 1013.02 1013.04 1013.59 1014.31 1014.96 1015.40 1015.82 1016.31 1016.77 1017.18 1017.53 1018.14 1018.58 1019.22 1019.88 1020.12 1020.38 1021.07 1021.42 1021.75 1021.82 1021.90 1021.93 1021.92 1021.92 1021.97 1021.90 1021.44 1020.82 1020.34 1019.93 1019.18 1018.59 1017.92 1017.02 1016.39 1015.68 1015.21
Thickness
5768 5756 5760 5781 5797 5810 5818 5819 5818 5822 5833 5834 5804 5777 5779 5801 5802 5795 5796 5791 5798 5798 5801 5801 5799 5802 5797 5793 5787 5786 5787 5784 5781 5779 5780 5778 5776 5777 5779 5780 5780 5781 5780 5781
5760 5754 5787 5797 5803 5803 5810 5818 5826 5803 5819 5813 5790 5776 5779 5802 5800 5794 5799 5787 5788 5796 5794 5795 5798 5797 5794 5791 5788 5784 5784 5783 5782 5782 5785 5783 5783 5779 5779 5779 5781 5783 5782 5783
5758 5778 5792 5794 5794 5794 5803 5810 5827 5807 5785 5807 5810 5778 5776 5799 5805 5805 5801 5795 5790 5793 5790 5792 5793 5791 5791 5786 5787 5785 5784 5783 5784 5787 5787 5784 5778 5776 5778 5778 5782 5785 5785 5785
5761 5790 5784 5783 5785 5798 5788 5826 5836 5806 5799 5791 5831 5784 5798 5802 5793 5793 5791 5795 5793 5797 5796 5793 5793 5790 5789 5783 5790 5787 5785 5783 5785 5787 5787 5786 5779 5769 5777 5781 5786 5786 5787 5787
5757 5769 5773 5770 5784 5800 5796 5830 5824 5815 5809 5811 5816 5802 5799 5803 5776 5789 5786 5797 5798 5799 5801 5799 5802 5797 5793 5793 5792 5788 5786 5784 5786 5788 5788 5785 5775 5778 5778 5777 5780 5784 5787 5788
5765 5787 5783 5781 5791 5798 5813 5809 5815 5813 5802 5780 5813 5811 5780 5769 5757 5756 5789 5786 5789 5804 5802 5802 5803 5799 5795 5793 5794 5789 5784 5784 5786 5787 5788 5784 5777 5769 5764 5765 5776 5781 5787 5788
5747 5764 5778 5785 5770 5788 5794 5788 5764 5755 5765 5774 5822 5810 5796 5768 5763 5743 5792 5795 5789 5794 5798 5801 5796 5795 5795 5793 5794 5790 5785 5783 5786 5787 5788 5788 5783 5772 5767 5771 5774 5783 5785 5787
5729 5720 5757 5777 5771 5770 5777 5787 5772 5736 5753 5779 5818 5798 5775 5786 5777 5777 5814 5811 5805 5802 5796 5795 5800 5795 5790 5789 5793 5792 5786 5783 5786 5788 5789 5791 5790 5778 5780 5780 5781 5779 5782 5783
5712 5736 5773 5779 5787 5790 5780 5770 5807 5797 5808 5796 5805 5785 5785 5782 5782 5793 5791 5788 5768 5773 5762 5771 5799 5792 5784 5793 5790 5794 5789 5787 5787 5789 5791 5791 5793 5789 5784 5783 5783 5782 5783 5786
5722 5711 5762 5772 5781 5787 5769 5791 5768 5783 5747 5753 5779 5776 5763 5769 5767 5773 5771 5764 5762 5760 5759 5765 5770 5778 5784 5792 5793 5797 5791 5790 5789 5790 5791 5792 5794 5796 5796 5794 5792 5790 5784 5789
5720 5725 5727 5751 5745 5754 5759 5747 5762 5782 5786 5771 5747 5726 5784 5755 5759 5750 5752 5745 5739 5740 5739 5746 5759 5757 5760 5778 5779 5767 5791 5786 5786 5788 5791 5793 5794 5797 5798 5797 5798 5791 5790 5798
5717 5718 5698 5728 5753 5766 5769 5762 5768 5758 5756 5786 5729 5693 5747 5742 5744 5736 5732 5730 5728 5726 5729 5736 5743 5737 5738 5757 5762 5760 5762 5765 5787 5787 5787 5790 5794 5796 5796 5794 5795 5793 5786 5791
5693 5703 5702 5710 5731 5744 5737 5751 5765 5778 5787 5774 5726 5716 5740 5731 5727 5719 5720 5719 5723 5718 5717 5721 5723 5728 5732 5739 5736 5748 5751 5756 5755 5775 5790 5788 5788 5793 5795 5794 5793 5793 5788 5790
5686 5690 5681 5653 5681 5723 5720 5739 5758 5759 5748 5760 5738 5712 5712 5712 5710 5706 5709 5709 5714 5718 5714 5711 5716 5720 5725 5723 5720 5721 5738 5743 5743 5760 5768 5776 5792 5792 5798 5793 5792 5791 5792 5788
5683 5675 5684 5688 5696 5706 5729 5730 5743 5738 5751 5732 5704 5706 5704 5703 5703 5703 5703 5707 5709 5711 5711 5713 5713 5715 5718 5718 5715 5714 5721 5733 5738 5741 5750 5772 5756 5767 5779 5792 5785 5788 5789 5790
5679 5663 5667 5669 5694 5693 5699 5731 5731 5732 5740 5735 5711 5704 5712 5709 5699 5699 5699 5702 5704 5709 5708 5706 5709 5712 5713 5713 5713 5716 5718 5719 5723 5728 5735 5752 5731 5766 5766 5778 5779 5783 5785 5787
5658 5656 5647 5652 5680 5677 5665 5689 5700 5706 5722 5685 5677 5689 5704 5699 5699 5697 5697 5697 5699 5703 5705 5703 5701 5704 5708 5711 5712 5715 5715 5717 5722 5721 5717 5727 5740 5756 5757 5760 5771 5779 5779 5785
5648 5644 5647 5645 5653 5628 5679 5697 5693 5687 5698 5693 5696 5689 5691 5686 5687 5689 5691 5687 5688 5694 5695 5697 5698 5696 5700 5703 5705 5710 5716 5718 5718 5718 5713 5715 5722 5725 5738 5749 5754 5760 5770 5778
5651 5642 5635 5634 5607 5641 5660 5669 5671 5671 5667 5677 5681 5682 5676 5677 5672 5667 5674 5676 5676 5680 5685 5686 5687 5688 5691 5693 5695 5698 5702 5706 5710 5711 5712 5719 5719 5718 5725 5733 5739 5747 5757 5766
5642 5637 5628 5636 5631 5628 5643 5654 5671 5672 5642 5662 5669 5663 5661 5659 5648 5652 5662 5668 5669 5668 5668 5667 5672 5676 5679 5679 5683 5684 5689 5693 5695 5696 5703 5708 5711 5715 5720 5727 5735 5741 5749 5755
5615 5618 5613 5621 5626 5632 5632 5642 5653 5624 5634 5654 5655 5652 5650 5639 5637 5645 5651 5649 5649 5649 5649 5650 5652 5655 5657 5661 5664 5668 5673 5679 5684 5687 5691 5697 5701 5705 5716 5723 5725 5732 5738 5745
5610 5605 5605 5614 5612 5608 5634 5630 5621 5624 5635 5635 5635 5631 5626 5625 5626 5628 5628 5630 5633 5633 5634 5636 5638 5638 5640 5642 5645 5649 5654 5662 5668 5673 5678 5683 5687 5693 5702 5709 5715 5720 5728 5736
5591 5605 5591 5605 5598 5609 5609 5616 5623 5626 5619 5617 5617 5617 5616 5612 5614 5613 5611 5613 5617 5618 5619 5621 5622 5623 5625 5627 5628 5631 5635 5641 5647 5654 5660 5668 5674 5680 5686 5694 5703 5712 5718 5727
5606 5606 5591 5593 5601 5602 5601 5602 5607 5610 5609 5608 5609 5606 5604 5604 5605 5603 5601 5599 5601 5603 5603 5605 5603 5605 5608 5611 5615 5616 5622 5628 5632 5638 5645 5653 5661 5668 5675 5683 5692 5700 5710 5715
5595 5597 5589 5587 5591 5593 5595 5594 5591 5590 5591 5592 5595 5595 5594 5593 5592 5592 5588 5587 5587 5585 5588 5587 5587 5590 5593 5597 5597 5600 5605 5610 5615 5622 5629 5636 5645 5655 5665 5674 5684 5691 5702 5709
5595 5583 5574 5572 5588 5586 5587 5592 5590 5582 5578 5577 5576 5575 5577 5578 5579 5579 5578 5576 5572 5575 5577 5574 5574 5574 5577 5579 5581 5584 5587 5589 5592 5599 5608 5617 5624 5634 5643 5653 5666 5677 5687 5694